Location: Curupao
(10.4996°N, 66.6442°W)
Time: 22:33:57
(UTC+00:00)

Cosmos 1536 Rocket - Pass Details

Date: 23 May 2024
Orbit: 602 x 629 km, 82.5° (Epoch: 14 June)

Event Time Altitude Azimuth Distance (km) Brightness Sun altitude
Exits shadow 09:02:04 - 184° (S) 2,586 6.5 -14.8°
Reaches altitude 10° 09:03:34 10° 185° (S) 1,976 5.9 -14.4°
Maximum altitude 09:07:57 87° 271° (W) 625 3.5 -13.5°
Drops below altitude 10° 09:12:23 10° 3° (N) 1,990 6.5 -12.5°
Sets 09:14:37 0° 4° (N) 2,899 7.4 -12.0°
